date,time,SUV Intensity [MED/Hr],UV Index,Daily total [MED],Since Last [MED]
06/09/2022,00:12:32,0.000,0.0,0.0,0.0
06/09/2022,00:13:32,0.000,0.0,0.0,0.0
06/09/2022,00:14:32,-0.001,0.0,0.0,0.0
06/09/2022,00:15:31,0.001,0.0,0.0,0.0
06/09/2022,00:16:31,0.001,0.0,0.0,0.0
06/09/2022,00:17:32,0.000,0.0,0.0,0.0
06/09/2022,00:18:32,0.000,0.0,0.0,0.0
06/09/2022,00:19:32,-0.000,0.0,0.0,0.0
06/09/2022,00:20:32,-0.001,0.0,0.0,0.0
06/09/2022,00:21:31,0.001,0.0,0.0,0.0
06/09/2022,00:22:31,0.001,0.0,0.0,0.0
06/09/2022,00:23:40,-0.000,0.0,0.0,0.0
06/09/2022,00:24:32,-0.000,0.0,0.0,0.0
06/09/2022,00:25:32,0.001,0.0,0.0,0.0
06/09/2022,00:26:31,0.000,0.0,0.0,0.0
06/09/2022,00:27:31,0.000,0.0,0.0,0.0
06/09/2022,00:28:32,0.000,0.0,0.0,0.0
06/09/2022,00:29:31,0.000,0.0,0.0,0.0
06/09/2022,00:30:31,0.000,0.0,0.0,0.0
06/09/2022,00:31:32,-0.001,0.0,0.0,0.0
06/09/2022,00:32:32,0.001,0.0,0.0,0.0
06/09/2022,00:33:31,0.000,0.0,0.0,0.0
06/09/2022,00:34:32,0.000,0.0,0.0,0.0
06/09/2022,00:35:32,0.001,0.0,0.0,0.0
06/09/2022,00:36:31,-0.000,0.0,0.0,0.0
06/09/2022,00:37:32,0.000,0.0,0.0,0.0
06/09/2022,00:38:40,0.000,0.0,0.0,0.0
06/09/2022,00:39:32,0.000,0.0,0.0,0.0
06/09/2022,00:40:32,0.000,0.0,0.0,0.0
06/09/2022,00:41:31,0.000,0.0,0.0,0.0
06/09/2022,00:42:32,0.000,0.0,0.0,0.0
06/09/2022,00:43:32,0.001,0.0,0.0,0.0
06/09/2022,00:44:40,-0.000,0.0,0.0,0.0
06/09/2022,00:45:32,0.000,0.0,0.0,0.0
06/09/2022,00:46:40,0.000,0.0,0.0,0.0
06/09/2022,00:47:31,0.000,0.0,0.0,0.0
06/09/2022,00:48:31,-0.000,0.0,0.0,0.0
06/09/2022,00:49:32,0.000,0.0,0.0,0.0
06/09/2022,00:50:31,0.000,0.0,0.0,0.0
06/09/2022,00:51:31,-0.000,0.0,0.0,0.0
06/09/2022,00:52:32,0.001,0.0,0.0,0.0
06/09/2022,00:53:31,0.000,0.0,0.0,0.0
06/09/2022,00:54:32,0.000,0.0,0.0,0.0
06/09/2022,00:55:32,0.000,0.0,0.0,0.0
06/09/2022,00:56:32,0.000,0.0,0.0,0.0
06/09/2022,00:57:31,0.000,0.0,0.0,0.0
06/09/2022,00:58:35,0.000,0.0,0.0,0.0
06/09/2022,00:59:40,0.000,0.0,0.0,0.0
06/09/2022,01:00:32,0.000,0.0,0.0,0.0
06/09/2022,01:01:32,0.000,0.0,0.0,0.0
06/09/2022,01:02:40,0.000,0.0,0.0,0.0
06/09/2022,01:03:32,0.000,0.0,0.0,0.0
06/09/2022,01:04:32,0.000,0.0,0.0,0.0
06/09/2022,01:05:31,0.001,0.0,0.0,0.0
06/09/2022,01:06:32,0.000,0.0,0.0,0.0
06/09/2022,01:07:32,0.001,0.0,0.0,0.0
06/09/2022,01:08:32,-0.000,0.0,0.0,0.0
06/09/2022,01:09:32,0.000,0.0,0.0,0.0
06/09/2022,01:10:32,0.000,0.0,0.0,0.0
06/09/2022,01:11:32,0.000,0.0,0.0,0.0
06/09/2022,01:12:32,0.000,0.0,0.0,0.0
06/09/2022,01:13:31,-0.001,0.0,0.0,0.0
06/09/2022,01:14:40,0.000,0.0,0.0,0.0
06/09/2022,01:15:32,0.000,0.0,0.0,0.0
06/09/2022,01:16:32,-0.001,0.0,0.0,0.0
06/09/2022,01:17:31,0.001,0.0,0.0,0.0
06/09/2022,01:18:31,0.000,0.0,0.0,0.0
06/09/2022,01:19:32,0.001,0.0,0.0,0.0
06/09/2022,01:20:40,-0.000,0.0,0.0,0.0
06/09/2022,01:21:32,-0.000,0.0,0.0,0.0
06/09/2022,01:22:32,0.001,0.0,0.0,0.0
06/09/2022,01:23:31,0.001,0.0,0.0,0.0
06/09/2022,01:24:32,0.000,0.0,0.0,0.0
06/09/2022,01:25:31,0.000,0.0,0.0,0.0
06/09/2022,01:26:32,-0.000,0.0,0.0,0.0
06/09/2022,01:27:32,0.000,0.0,0.0,0.0
06/09/2022,01:28:32,-0.000,0.0,0.0,0.0
06/09/2022,01:29:32,0.000,0.0,0.0,0.0
06/09/2022,01:30:44,0.000,0.0,0.0,0.0
06/09/2022,01:32:32,0.000,0.0,0.0,0.0
06/09/2022,01:33:31,0.001,0.0,0.0,0.0
06/09/2022,01:34:32,0.000,0.0,0.0,0.0
06/09/2022,01:35:41,-0.000,0.0,0.0,0.0
06/09/2022,01:36:32,0.000,0.0,0.0,0.0
06/09/2022,01:37:32,0.000,0.0,0.0,0.0
06/09/2022,01:38:31,0.000,0.0,0.0,0.0
06/09/2022,01:39:32,-0.001,0.0,0.0,0.0
06/09/2022,01:40:32,0.001,0.0,0.0,0.0
06/09/2022,01:41:32,0.000,0.0,0.0,0.0
06/09/2022,01:42:32,-0.001,0.0,0.0,0.0
06/09/2022,01:43:32,0.001,0.0,0.0,0.0
06/09/2022,01:44:32,0.000,0.0,0.0,0.0
06/09/2022,01:45:32,0.000,0.0,0.0,0.0
06/09/2022,01:46:31,0.000,0.0,0.0,0.0
06/09/2022,01:47:32,0.000,0.0,0.0,0.0
06/09/2022,01:48:31,-0.001,0.0,0.0,0.0
06/09/2022,01:49:31,-0.001,0.0,0.0,0.0
06/09/2022,01:50:32,0.001,0.0,0.0,0.0
06/09/2022,01:51:32,0.000,0.0,0.0,0.0
06/09/2022,01:52:31,0.000,0.0,0.0,0.0
06/09/2022,01:53:32,0.000,0.0,0.0,0.0
06/09/2022,01:54:32,0.001,0.0,0.0,0.0
06/09/2022,01:55:32,-0.000,0.0,0.0,0.0
06/09/2022,01:56:40,0.000,0.0,0.0,0.0
06/09/2022,01:57:31,0.000,0.0,0.0,0.0
06/09/2022,01:58:32,0.000,0.0,0.0,0.0
06/09/2022,01:59:32,0.000,0.0,0.0,0.0
06/09/2022,02:00:32,0.000,0.0,0.0,0.0
06/09/2022,02:01:32,0.001,0.0,0.0,0.0
06/09/2022,02:02:32,0.000,0.0,0.0,0.0
06/09/2022,02:03:32,0.001,0.0,0.0,0.0
06/09/2022,02:04:32,0.000,0.0,0.0,0.0
06/09/2022,02:05:32,-0.000,0.0,0.0,0.0
06/09/2022,02:06:32,-0.001,0.0,0.0,0.0
06/09/2022,02:07:32,0.001,0.0,0.0,0.0
06/09/2022,02:08:32,0.000,0.0,0.0,0.0
06/09/2022,02:09:31,0.000,0.0,0.0,0.0
06/09/2022,02:10:32,0.000,0.0,0.0,0.0
06/09/2022,02:11:40,0.000,0.0,0.0,0.0
06/09/2022,02:12:31,0.000,0.0,0.0,0.0
06/09/2022,02:13:32,0.001,0.0,0.0,0.0
06/09/2022,02:14:40,0.001,0.0,0.0,0.0
06/09/2022,02:15:32,-0.001,0.0,0.0,0.0
06/09/2022,02:16:32,-0.001,0.0,0.0,0.0
06/09/2022,02:17:40,-0.001,0.0,0.0,0.0
06/09/2022,02:18:32,0.000,0.0,0.0,0.0
06/09/2022,02:19:32,0.000,0.0,0.0,0.0
06/09/2022,02:20:32,0.000,0.0,0.0,0.0
06/09/2022,02:21:31,0.000,0.0,0.0,0.0
06/09/2022,02:22:31,-0.001,0.0,0.0,0.0
06/09/2022,02:23:32,-0.000,0.0,0.0,0.0
06/09/2022,02:24:32,0.000,0.0,0.0,0.0
06/09/2022,02:25:32,0.000,0.0,0.0,0.0
06/09/2022,02:26:32,0.000,0.0,0.0,0.0
06/09/2022,02:27:31,0.000,0.0,0.0,0.0
06/09/2022,02:28:32,0.000,0.0,0.0,0.0
06/09/2022,02:29:32,0.000,0.0,0.0,0.0
06/09/2022,02:30:40,0.000,0.0,0.0,0.0
06/09/2022,02:31:32,-0.000,0.0,0.0,0.0
06/09/2022,02:32:40,0.001,0.0,0.0,0.0
06/09/2022,02:33:32,0.000,0.0,0.0,0.0
06/09/2022,02:34:32,-0.000,0.0,0.0,0.0
06/09/2022,02:35:40,0.000,0.0,0.0,0.0
06/09/2022,02:36:31,0.001,0.0,0.0,0.0
06/09/2022,02:37:31,-0.000,0.0,0.0,0.0
06/09/2022,02:38:32,-0.001,0.0,0.0,0.0
06/09/2022,02:39:31,-0.001,0.0,0.0,0.0
06/09/2022,02:40:32,-0.000,0.0,0.0,0.0
06/09/2022,02:41:32,-0.001,0.0,0.0,0.0
06/09/2022,02:42:32,0.000,0.0,0.0,0.0
06/09/2022,02:43:32,0.000,0.0,0.0,0.0
06/09/2022,02:44:32,0.000,0.0,0.0,0.0
06/09/2022,02:45:32,-0.001,0.0,0.0,0.0
06/09/2022,02:46:31,0.000,0.0,0.0,0.0
06/09/2022,02:47:32,0.000,0.0,0.0,0.0
06/09/2022,02:48:32,-0.001,0.0,0.0,0.0
06/09/2022,02:49:32,0.000,0.0,0.0,0.0
06/09/2022,02:50:32,0.000,0.0,0.0,0.0
06/09/2022,02:51:31,-0.000,0.0,0.0,0.0
06/09/2022,02:52:31,0.000,0.0,0.0,0.0
06/09/2022,02:53:40,0.000,0.0,0.0,0.0
06/09/2022,02:54:32,-0.000,0.0,0.0,0.0
06/09/2022,02:55:32,0.000,0.0,0.0,0.0
06/09/2022,02:56:31,-0.001,0.0,0.0,0.0
06/09/2022,02:57:32,0.000,0.0,0.0,0.0
06/09/2022,02:58:32,0.000,0.0,0.0,0.0
06/09/2022,02:59:31,-0.001,0.0,0.0,0.0
06/09/2022,03:00:31,-0.000,0.0,0.0,0.0
06/09/2022,03:01:32,0.000,0.0,0.0,0.0
06/09/2022,03:02:32,0.000,0.0,0.0,0.0
06/09/2022,03:03:33,0.000,0.0,0.0,0.0
06/09/2022,03:04:32,0.000,0.0,0.0,0.0
06/09/2022,03:05:31,-0.001,0.0,0.0,0.0
06/09/2022,03:06:32,0.000,0.0,0.0,0.0
06/09/2022,03:07:32,-0.000,0.0,0.0,0.0
06/09/2022,03:08:40,0.000,0.0,0.0,0.0
06/09/2022,03:09:31,0.000,0.0,0.0,0.0
06/09/2022,03:10:32,-0.001,0.0,0.0,0.0
06/09/2022,03:11:31,0.000,0.0,0.0,0.0
06/09/2022,03:12:31,-0.001,0.0,0.0,0.0
06/09/2022,03:13:32,0.000,0.0,0.0,0.0
06/09/2022,03:14:40,0.000,0.0,0.0,0.0
06/09/2022,03:15:32,-0.001,0.0,0.0,0.0
06/09/2022,03:16:32,0.000,0.0,0.0,0.0
06/09/2022,03:17:34,0.000,0.0,0.0,0.0
06/09/2022,03:18:32,0.000,0.0,0.0,0.0
06/09/2022,03:19:32,0.001,0.0,0.0,0.0
06/09/2022,03:20:32,-0.001,0.0,0.0,0.0
06/09/2022,03:21:32,-0.000,0.0,0.0,0.0
06/09/2022,03:22:32,-0.001,0.0,0.0,0.0
06/09/2022,03:23:33,0.000,0.0,0.0,0.0
06/09/2022,03:24:32,-0.000,0.0,0.0,0.0
06/09/2022,03:25:32,0.001,0.0,0.0,0.0
06/09/2022,03:26:40,0.001,0.0,0.0,0.0
06/09/2022,03:27:31,0.000,0.0,0.0,0.0
06/09/2022,03:28:31,0.001,0.0,0.0,0.0
06/09/2022,03:29:40,0.000,0.0,0.0,0.0
06/09/2022,03:30:32,-0.000,0.0,0.0,0.0
06/09/2022,03:31:32,0.000,0.0,0.0,0.0
06/09/2022,03:32:32,0.000,0.0,0.0,0.0
06/09/2022,03:33:32,0.001,0.0,0.0,0.0
06/09/2022,03:34:32,0.000,0.0,0.0,0.0
06/09/2022,03:35:32,-0.000,0.0,0.0,0.0
06/09/2022,03:36:32,0.000,0.0,0.0,0.0
06/09/2022,03:37:32,0.001,0.0,0.0,0.0
06/09/2022,03:38:32,-0.000,0.0,0.0,0.0
06/09/2022,03:39:32,0.000,0.0,0.0,0.0
06/09/2022,03:40:31,0.000,0.0,0.0,0.0
06/09/2022,03:41:32,0.000,0.0,0.0,0.0
06/09/2022,03:42:32,0.000,0.0,0.0,0.0
06/09/2022,03:43:32,-0.001,0.0,0.0,0.0
06/09/2022,03:44:40,0.000,0.0,0.0,0.0
06/09/2022,03:45:32,0.000,0.0,0.0,0.0
06/09/2022,03:46:32,0.000,0.0,0.0,0.0
06/09/2022,03:47:40,0.000,0.0,0.0,0.0
06/09/2022,03:48:31,0.000,0.0,0.0,0.0
06/09/2022,03:49:41,-0.001,0.0,0.0,0.0
06/09/2022,03:50:32,0.000,0.0,0.0,0.0
06/09/2022,03:51:32,0.000,0.0,0.0,0.0
06/09/2022,03:52:32,0.000,0.0,0.0,0.0
06/09/2022,03:53:32,0.000,0.0,0.0,0.0
06/09/2022,03:54:32,0.000,0.0,0.0,0.0
06/09/2022,03:55:32,0.000,0.0,0.0,0.0
06/09/2022,03:56:32,-0.000,0.0,0.0,0.0
06/09/2022,03:57:32,0.000,0.0,0.0,0.0
06/09/2022,03:58:32,0.000,0.0,0.0,0.0
06/09/2022,03:59:31,-0.000,0.0,0.0,0.0
06/09/2022,04:00:32,0.000,0.0,0.0,0.0
06/09/2022,04:01:44,0.001,0.0,0.0,0.0
06/09/2022,04:03:41,0.000,0.0,0.0,0.0
06/09/2022,04:04:32,0.000,0.0,0.0,0.0
06/09/2022,04:05:41,0.001,0.0,0.0,0.0
06/09/2022,04:06:32,0.000,0.0,0.0,0.0
06/09/2022,04:07:32,0.000,0.0,0.0,0.0
06/09/2022,04:08:32,-0.001,0.0,0.0,0.0
06/09/2022,04:09:32,0.000,0.0,0.0,0.0
06/09/2022,04:10:31,-0.000,0.0,0.0,0.0
06/09/2022,04:11:32,0.000,0.0,0.0,0.0
06/09/2022,04:12:32,-0.000,0.0,0.0,0.0
06/09/2022,04:13:32,0.000,0.0,0.0,0.0
06/09/2022,04:14:32,0.001,0.0,0.0,0.0
06/09/2022,04:15:32,0.000,0.0,0.0,0.0
06/09/2022,04:16:32,0.000,0.0,0.0,0.0
06/09/2022,04:17:32,0.000,0.0,0.0,0.0
06/09/2022,04:18:32,-0.001,0.0,0.0,0.0
06/09/2022,04:19:32,0.000,0.0,0.0,0.0
06/09/2022,04:20:32,0.000,0.0,0.0,0.0
06/09/2022,04:21:32,0.000,0.0,0.0,0.0
06/09/2022,04:22:32,0.000,0.0,0.0,0.0
06/09/2022,04:23:40,0.000,0.0,0.0,0.0
06/09/2022,04:24:32,0.000,0.0,0.0,0.0
06/09/2022,04:25:32,0.000,0.0,0.0,0.0
06/09/2022,04:26:32,-0.001,0.0,0.0,0.0
06/09/2022,04:27:32,0.000,0.0,0.0,0.0
06/09/2022,04:28:32,-0.000,0.0,0.0,0.0
06/09/2022,04:29:32,-0.001,0.0,0.0,0.0
06/09/2022,04:30:32,0.001,0.0,0.0,0.0
06/09/2022,04:31:32,0.000,0.0,0.0,0.0
06/09/2022,04:32:32,-0.000,0.0,0.0,0.0
06/09/2022,04:33:32,0.000,0.0,0.0,0.0
06/09/2022,04:34:32,0.000,0.0,0.0,0.0
06/09/2022,04:35:32,-0.001,0.0,0.0,0.0
06/09/2022,04:36:40,0.000,0.0,0.0,0.0
06/09/2022,04:37:32,0.000,0.0,0.0,0.0
06/09/2022,04:38:32,0.000,0.0,0.0,0.0
06/09/2022,04:39:40,0.000,0.0,0.0,0.0
06/09/2022,04:40:32,0.000,0.0,0.0,0.0
06/09/2022,04:41:32,0.000,0.0,0.0,0.0
06/09/2022,04:42:32,0.000,0.0,0.0,0.0
06/09/2022,04:43:32,-0.001,0.0,0.0,0.0
06/09/2022,04:44:32,0.000,0.0,0.0,0.0
06/09/2022,04:45:32,0.001,0.0,0.0,0.0
06/09/2022,04:46:32,-0.000,0.0,0.0,0.0
06/09/2022,04:47:40,0.000,0.0,0.0,0.0
06/09/2022,04:48:32,-0.000,0.0,0.0,0.0
06/09/2022,04:49:32,0.000,0.0,0.0,0.0
06/09/2022,04:50:32,0.000,0.0,0.0,0.0
06/09/2022,04:51:32,0.000,0.0,0.0,0.0
06/09/2022,04:52:33,0.000,0.0,0.0,0.0
06/09/2022,04:53:32,0.001,0.0,0.0,0.0
06/09/2022,04:54:40,0.000,0.0,0.0,0.0
06/09/2022,04:55:32,0.000,0.0,0.0,0.0
06/09/2022,04:56:32,0.000,0.0,0.0,0.0
06/09/2022,04:57:34,0.000,0.0,0.0,0.0
06/09/2022,04:58:32,0.000,0.0,0.0,0.0
06/09/2022,04:59:32,0.001,0.0,0.0,0.0
06/09/2022,05:00:32,0.000,0.0,0.0,0.0
06/09/2022,05:01:32,-0.001,0.0,0.0,0.0
06/09/2022,05:02:32,-0.001,0.0,0.0,0.0
06/09/2022,05:03:32,-0.000,0.0,0.0,0.0
06/09/2022,05:04:32,0.000,0.0,0.0,0.0
06/09/2022,05:05:32,0.000,0.0,0.0,0.0
06/09/2022,05:06:33,-0.000,0.0,0.0,0.0
06/09/2022,05:07:32,0.000,0.0,0.0,0.0
06/09/2022,05:08:32,0.000,0.0,0.0,0.0
06/09/2022,05:09:40,0.000,0.0,0.0,0.0
06/09/2022,05:10:32,0.000,0.0,0.0,0.0
06/09/2022,05:11:32,0.001,0.0,0.0,0.0
06/09/2022,05:12:40,0.001,0.0,0.0,0.0
06/09/2022,05:13:32,-0.001,0.0,0.0,0.0
06/09/2022,05:14:33,0.000,0.0,0.0,0.0
06/09/2022,05:15:40,-0.001,0.0,0.0,0.0
06/09/2022,05:16:32,-0.000,0.0,0.0,0.0
06/09/2022,05:17:32,0.001,0.0,0.0,0.0
06/09/2022,05:18:40,-0.001,0.0,0.0,0.0
06/09/2022,05:19:32,-0.000,0.0,0.0,0.0
06/09/2022,05:20:32,0.000,0.0,0.0,0.0
06/09/2022,05:21:40,0.000,0.0,0.0,0.0
06/09/2022,05:22:32,0.000,0.0,0.0,0.0
06/09/2022,05:23:32,0.001,0.0,0.0,0.0
06/09/2022,05:24:32,0.000,0.0,0.0,0.0
06/09/2022,05:25:32,0.001,0.0,0.0,0.0
06/09/2022,05:26:32,0.000,0.0,0.0,0.0
06/09/2022,05:27:32,0.000,0.0,0.0,0.0
06/09/2022,05:28:32,0.001,0.0,0.0,0.0
06/09/2022,05:29:32,-0.001,0.0,0.0,0.0
06/09/2022,05:30:41,0.001,0.0,0.0,0.0
06/09/2022,05:31:32,0.001,0.0,0.0,0.0
06/09/2022,05:32:32,0.001,0.0,0.0,0.0
06/09/2022,05:33:40,0.001,0.0,0.0,0.0
06/09/2022,05:34:32,0.002,0.0,0.0,0.0
06/09/2022,05:35:32,0.002,0.0,0.0,0.0
06/09/2022,05:36:32,0.001,0.0,0.0,0.0
06/09/2022,05:37:33,0.002,0.0,0.0,0.0
06/09/2022,05:38:32,0.002,0.0,0.0,0.0
06/09/2022,05:39:32,0.002,0.0,0.0,0.0
06/09/2022,05:40:32,0.001,0.0,0.0,0.0
06/09/2022,05:41:32,0.002,0.0,0.0,0.0
06/09/2022,05:42:32,0.003,0.0,0.0,0.0
06/09/2022,05:43:32,0.003,0.0,0.0,0.0
06/09/2022,05:44:32,0.002,0.0,0.0,0.0
06/09/2022,05:45:32,0.003,0.0,0.0,0.0
06/09/2022,05:46:32,0.001,0.0,0.0,0.0
06/09/2022,05:47:32,0.001,0.0,0.0,0.0
06/09/2022,05:48:32,0.002,0.0,0.0,0.0
06/09/2022,05:49:32,0.002,0.0,0.0,0.0
06/09/2022,05:50:34,0.003,0.0,0.0,0.0
06/09/2022,05:51:32,0.004,0.0,0.0,0.0
06/09/2022,05:52:32,0.004,0.0,0.0,0.0
06/09/2022,05:53:32,0.003,0.0,0.0,0.0
06/09/2022,05:54:32,0.003,0.0,0.0,0.0
06/09/2022,05:55:32,0.004,0.0,0.0,0.0
06/09/2022,05:56:32,0.004,0.0,0.0,0.0
06/09/2022,05:57:33,0.004,0.0,0.0,0.0
06/09/2022,05:58:32,0.004,0.0,0.0,0.0
06/09/2022,05:59:32,0.005,0.0,0.0,0.0
06/09/2022,06:00:32,0.004,0.0,0.0,0.0
06/09/2022,06:01:32,0.004,0.0,0.0,0.0
06/09/2022,06:02:32,0.005,0.0,0.0,0.0
06/09/2022,06:03:32,0.004,0.0,0.0,0.0
06/09/2022,06:04:40,0.004,0.0,0.0,0.0
06/09/2022,06:05:32,0.005,0.0,0.0,0.0
06/09/2022,06:06:32,0.004,0.0,0.0,0.0
06/09/2022,06:07:33,0.006,0.0,0.0,0.0
06/09/2022,06:08:32,0.007,0.0,0.0,0.0
06/09/2022,06:09:32,0.007,0.0,0.0,0.0
06/09/2022,06:10:32,0.007,0.0,0.0,0.0
06/09/2022,06:11:32,0.008,0.0,0.001,0.001
06/09/2022,06:12:32,0.009,0.0,0.001,0.0
06/09/2022,06:13:32,0.008,0.0,0.001,0.0
06/09/2022,06:14:33,0.007,0.0,0.001,0.0
06/09/2022,06:15:32,0.008,0.0,0.001,0.0
06/09/2022,06:16:40,0.007,0.0,0.001,0.0
06/09/2022,06:17:32,0.007,0.0,0.001,0.0
06/09/2022,06:18:32,0.008,0.0,0.001,0.0
06/09/2022,06:19:41,0.009,0.0,0.002,0.001
06/09/2022,06:20:32,0.009,0.0,0.002,0.0
06/09/2022,06:21:32,0.010,0.0,0.002,0.0
06/09/2022,06:22:32,0.011,0.0,0.002,0.0
06/09/2022,06:23:32,0.013,0.0,0.002,0.0
06/09/2022,06:24:32,0.012,0.0,0.002,0.0
06/09/2022,06:25:33,0.014,0.0,0.003,0.001
06/09/2022,06:26:32,0.015,0.0,0.003,0.0
06/09/2022,06:27:32,0.017,0.0,0.003,0.0
06/09/2022,06:28:33,0.018,0.0,0.003,0.0
06/09/2022,06:29:32,0.018,0.0,0.004,0.001
06/09/2022,06:30:32,0.018,0.0,0.004,0.0
06/09/2022,06:31:32,0.020,0.0,0.004,0.0
06/09/2022,06:32:32,0.020,0.0,0.005,0.001
06/09/2022,06:33:32,0.019,0.0,0.005,0.0
06/09/2022,06:34:40,0.020,0.0,0.005,0.0
06/09/2022,06:35:32,0.021,0.0,0.006,0.001
06/09/2022,06:36:33,0.021,0.0,0.006,0.0
06/09/2022,06:37:40,0.022,0.0,0.006,0.0
06/09/2022,06:38:32,0.021,0.0,0.007,0.001
06/09/2022,06:39:33,0.028,0.0,0.007,0.0
06/09/2022,06:40:32,0.033,0.0,0.008,0.001
06/09/2022,06:41:33,0.033,0.0,0.008,0.0
06/09/2022,06:42:32,0.034,0.0,0.009,0.001
06/09/2022,06:43:32,0.034,0.0,0.009,0.0
06/09/2022,06:44:33,0.032,0.0,0.01,0.001
06/09/2022,06:45:32,0.034,0.0,0.011,0.001
06/09/2022,06:46:32,0.038,0.0,0.011,0.0
06/09/2022,06:47:32,0.038,0.0,0.012,0.001
06/09/2022,06:48:32,0.041,0.0,0.012,0.0
06/09/2022,06:49:32,0.042,0.0,0.013,0.001
06/09/2022,06:50:32,0.040,0.0,0.014,0.001
06/09/2022,06:51:33,0.043,0.0,0.014,0.0
06/09/2022,06:52:34,0.045,0.0,0.015,0.001
06/09/2022,06:53:41,0.043,0.0,0.016,0.001
06/09/2022,06:54:32,0.044,0.0,0.017,0.001
06/09/2022,06:55:40,0.047,0.0,0.017,0.0
06/09/2022,06:56:40,0.054,0.0,0.018,0.001
06/09/2022,06:57:32,0.055,0.0,0.019,0.001
06/09/2022,06:58:33,0.053,0.0,0.02,0.001
06/09/2022,06:59:32,0.052,0.0,0.021,0.001
06/09/2022,07:00:32,0.055,0.0,0.022,0.001
06/09/2022,07:01:32,0.059,0.0,0.023,0.001
06/09/2022,07:02:32,0.055,0.0,0.024,0.001
06/09/2022,07:03:32,0.047,0.0,0.025,0.001
06/09/2022,07:04:33,0.048,0.0,0.025,0.0
06/09/2022,07:05:41,0.064,0.0,0.026,0.001
06/09/2022,07:06:32,0.068,0.0,0.027,0.001
06/09/2022,07:07:32,0.062,0.0,0.028,0.001
06/09/2022,07:08:33,0.056,0.0,0.029,0.001
06/09/2022,07:09:32,0.056,0.0,0.03,0.001
06/09/2022,07:10:32,0.060,0.0,0.031,0.001
06/09/2022,07:11:32,0.062,0.0,0.032,0.001
06/09/2022,07:12:32,0.067,0.0,0.033,0.001
06/09/2022,07:13:32,0.066,0.0,0.034,0.001
06/09/2022,07:14:32,0.067,0.0,0.036,0.002
06/09/2022,07:15:33,0.077,0.0,0.037,0.001
06/09/2022,07:16:32,0.084,0.0,0.038,0.001
06/09/2022,07:17:32,0.088,0.0,0.04,0.002
06/09/2022,07:18:32,0.098,0.0,0.041,0.001
06/09/2022,07:19:32,0.102,0.0,0.043,0.002
06/09/2022,07:20:32,0.105,0.0,0.045,0.002
06/09/2022,07:21:32,0.105,0.0,0.046,0.001
06/09/2022,07:22:32,0.103,0.0,0.048,0.002
06/09/2022,07:23:32,0.105,0.0,0.05,0.002
06/09/2022,07:24:33,0.102,0.0,0.051,0.001
06/09/2022,07:25:32,0.104,0.0,0.053,0.002
06/09/2022,07:26:42,0.104,0.0,0.055,0.002
06/09/2022,07:27:32,0.098,0.0,0.057,0.002
06/09/2022,07:28:32,0.096,0.0,0.058,0.001
06/09/2022,07:29:32,0.096,0.0,0.06,0.002
06/09/2022,07:30:49,0.108,0.0,0.062,0.002
06/09/2022,07:32:41,0.119,0.0,0.066,0.004
06/09/2022,07:33:32,0.123,0.0,0.067,0.001
06/09/2022,07:34:33,0.128,0.0,0.069,0.002
06/09/2022,07:35:32,0.125,0.0,0.072,0.003
06/09/2022,07:36:33,0.125,0.0,0.074,0.002
06/09/2022,07:37:32,0.123,0.0,0.076,0.002
06/09/2022,07:38:32,0.121,0.0,0.078,0.002
06/09/2022,07:39:33,0.119,0.0,0.08,0.002
06/09/2022,07:40:32,0.118,0.0,0.082,0.002
06/09/2022,07:41:41,0.118,0.0,0.084,0.002
06/09/2022,07:42:34,0.120,0.0,0.086,0.002
06/09/2022,07:43:33,0.121,0.0,0.088,0.002
06/09/2022,07:44:32,0.122,0.0,0.09,0.002
06/09/2022,07:45:32,0.124,0.0,0.092,0.002
06/09/2022,07:46:32,0.117,0.0,0.094,0.002
06/09/2022,07:47:32,0.127,0.0,0.096,0.002
06/09/2022,07:48:32,0.125,0.0,0.098,0.002
06/09/2022,07:49:32,0.123,0.0,0.1,0.002
06/09/2022,07:50:32,0.122,0.0,0.102,0.002
06/09/2022,07:51:32,0.120,0.0,0.104,0.002
06/09/2022,07:52:32,0.123,0.0,0.106,0.002
06/09/2022,07:53:32,0.126,0.0,0.108,0.002
06/09/2022,07:54:32,0.130,0.0,0.11,0.002
06/09/2022,07:55:32,0.135,0.0,0.112,0.002
06/09/2022,07:56:32,0.140,0.0,0.115,0.003
06/09/2022,07:57:32,0.149,0.0,0.117,0.002
06/09/2022,07:58:33,0.158,0.0,0.12,0.003
06/09/2022,07:59:40,0.165,0.0,0.123,0.003
06/09/2022,08:00:32,0.169,0.0,0.125,0.002
06/09/2022,08:01:32,0.166,0.0,0.128,0.003
06/09/2022,08:02:33,0.175,0.0,0.131,0.003
06/09/2022,08:03:32,0.186,0.0,0.134,0.003
06/09/2022,08:04:34,0.191,0.0,0.137,0.003
06/09/2022,08:05:32,0.196,0.0,0.14,0.003
06/09/2022,08:06:32,0.196,0.0,0.143,0.003
06/09/2022,08:07:32,0.196,0.0,0.147,0.004
06/09/2022,08:08:32,0.206,0.0,0.15,0.003
06/09/2022,08:09:32,0.213,0.0,0.153,0.003
06/09/2022,08:10:32,0.216,0.0,0.157,0.004
06/09/2022,08:11:32,0.222,1.0,0.161,0.004
06/09/2022,08:12:41,0.229,1.0,0.165,0.004
06/09/2022,08:13:33,0.230,1.0,0.168,0.003
06/09/2022,08:14:32,0.242,1.0,0.172,0.004
06/09/2022,08:15:32,0.250,1.0,0.176,0.004
06/09/2022,08:16:40,0.262,1.0,0.181,0.005
06/09/2022,08:17:43,0.276,1.0,0.186,0.005
06/09/2022,08:18:32,0.278,1.0,0.19,0.004
06/09/2022,08:19:32,0.292,1.0,0.194,0.004
06/09/2022,08:20:32,0.283,1.0,0.199,0.005
06/09/2022,08:21:33,0.284,1.0,0.204,0.005
06/09/2022,08:22:32,0.285,1.0,0.209,0.005
06/09/2022,08:23:33,0.283,1.0,0.213,0.004
06/09/2022,08:24:33,0.282,1.0,0.218,0.005
06/09/2022,08:25:32,0.297,1.0,0.223,0.005
06/09/2022,08:26:33,0.289,1.0,0.228,0.005
06/09/2022,08:27:32,0.288,1.0,0.233,0.005
06/09/2022,08:28:33,0.285,1.0,0.237,0.004
06/09/2022,08:29:32,0.293,1.0,0.242,0.005
06/09/2022,08:30:41,0.301,1.0,0.248,0.006
06/09/2022,08:31:32,0.318,1.0,0.253,0.005
06/09/2022,08:32:33,0.336,1.0,0.258,0.005
06/09/2022,08:33:32,0.303,1.0,0.264,0.006
06/09/2022,08:34:33,0.264,1.0,0.268,0.004
06/09/2022,08:35:32,0.243,1.0,0.273,0.005
06/09/2022,08:36:32,0.227,1.0,0.277,0.004
06/09/2022,08:37:33,0.218,1.0,0.28,0.003
06/09/2022,08:38:33,0.209,0.0,0.284,0.004
06/09/2022,08:39:32,0.205,0.0,0.287,0.003
06/09/2022,08:40:32,0.201,0.0,0.291,0.004
06/09/2022,08:41:32,0.193,0.0,0.294,0.003
06/09/2022,08:42:41,0.191,0.0,0.298,0.004
06/09/2022,08:43:32,0.189,0.0,0.3,0.002
06/09/2022,08:44:32,0.182,0.0,0.303,0.003
06/09/2022,08:45:40,0.171,0.0,0.307,0.004
06/09/2022,08:46:32,0.171,0.0,0.309,0.002
06/09/2022,08:47:32,0.167,0.0,0.312,0.003
06/09/2022,08:48:40,0.158,0.0,0.315,0.003
06/09/2022,08:49:32,0.148,0.0,0.317,0.002
06/09/2022,08:50:33,0.146,0.0,0.32,0.003
06/09/2022,08:51:32,0.148,0.0,0.322,0.002
06/09/2022,08:52:33,0.148,0.0,0.325,0.003
06/09/2022,08:53:33,0.148,0.0,0.327,0.002
06/09/2022,08:54:33,0.151,0.0,0.33,0.003
06/09/2022,08:55:32,0.152,0.0,0.332,0.002
06/09/2022,08:56:33,0.155,0.0,0.335,0.003
06/09/2022,08:57:32,0.163,0.0,0.337,0.002
06/09/2022,08:58:49,0.173,0.0,0.341,0.004
06/09/2022,09:00:33,0.195,0.0,0.346,0.005
06/09/2022,09:01:32,0.209,0.0,0.349,0.003
06/09/2022,09:02:32,0.226,1.0,0.353,0.004
06/09/2022,09:03:41,0.247,1.0,0.358,0.005
06/09/2022,09:04:32,0.268,1.0,0.361,0.003
06/09/2022,09:05:33,0.297,1.0,0.366,0.005
06/09/2022,09:06:32,0.334,1.0,0.371,0.005
06/09/2022,09:07:33,0.375,1.0,0.377,0.006
06/09/2022,09:08:32,0.438,1.0,0.384,0.007
06/09/2022,09:09:33,0.424,1.0,0.391,0.007
06/09/2022,09:10:32,0.454,1.0,0.398,0.007
06/09/2022,09:11:32,0.486,1.0,0.406,0.008
06/09/2022,09:12:32,0.483,1.0,0.414,0.008
06/09/2022,09:13:33,0.491,1.0,0.422,0.008
06/09/2022,09:14:32,0.473,1.0,0.43,0.008
06/09/2022,09:15:41,0.416,1.0,0.439,0.009
06/09/2022,09:16:32,0.369,1.0,0.444,0.005
06/09/2022,09:17:33,0.402,1.0,0.451,0.007
06/09/2022,09:18:32,0.618,1.0,0.46,0.009
06/09/2022,09:19:33,0.599,1.0,0.471,0.011
06/09/2022,09:20:32,0.575,1.0,0.481,0.01
06/09/2022,09:21:33,0.649,1.0,0.492,0.011
06/09/2022,09:22:32,0.776,2.0,0.504,0.012
06/09/2022,09:23:33,0.737,2.0,0.517,0.013
06/09/2022,09:24:33,0.556,1.0,0.527,0.01
06/09/2022,09:25:32,0.497,1.0,0.536,0.009
06/09/2022,09:26:33,0.454,1.0,0.544,0.008
06/09/2022,09:27:32,0.487,1.0,0.552,0.008
06/09/2022,09:28:33,0.529,1.0,0.56,0.008
06/09/2022,09:29:32,0.540,1.0,0.569,0.009
06/09/2022,09:30:49,0.538,1.0,0.581,0.012
06/09/2022,09:32:33,0.536,1.0,0.597,0.016
06/09/2022,09:33:32,0.527,1.0,0.606,0.009
06/09/2022,09:34:33,0.559,1.0,0.615,0.009
06/09/2022,09:35:33,0.617,1.0,0.625,0.01
06/09/2022,09:36:33,0.732,2.0,0.637,0.012
06/09/2022,09:37:32,0.620,1.0,0.649,0.012
06/09/2022,09:38:32,0.590,1.0,0.659,0.01
06/09/2022,09:39:33,0.575,1.0,0.669,0.01
06/09/2022,09:40:32,0.566,1.0,0.678,0.009
06/09/2022,09:41:32,0.545,1.0,0.688,0.01
06/09/2022,09:42:40,0.529,1.0,0.698,0.01
06/09/2022,09:43:32,0.513,1.0,0.705,0.007
06/09/2022,09:44:32,0.478,1.0,0.714,0.009
06/09/2022,09:45:41,0.424,1.0,0.722,0.008
06/09/2022,09:46:31,0.444,1.0,0.728,0.006
06/09/2022,09:47:32,0.479,1.0,0.736,0.008
06/09/2022,09:48:32,0.488,1.0,0.744,0.008
06/09/2022,09:49:32,0.498,1.0,0.752,0.008
06/09/2022,09:50:33,0.501,1.0,0.761,0.009
06/09/2022,09:51:41,0.461,1.0,0.77,0.009
06/09/2022,09:52:32,0.433,1.0,0.776,0.006
06/09/2022,09:53:32,0.421,1.0,0.783,0.007
06/09/2022,09:54:34,0.407,1.0,0.791,0.008
06/09/2022,09:55:48,0.399,1.0,0.799,0.008
06/09/2022,09:57:33,0.376,1.0,0.81,0.011
06/09/2022,09:58:33,0.353,1.0,0.816,0.006
06/09/2022,09:59:32,0.368,1.0,0.822,0.006
06/09/2022,10:00:32,0.396,1.0,0.828,0.006
06/09/2022,10:01:32,0.420,1.0,0.835,0.007
06/09/2022,10:02:32,0.437,1.0,0.842,0.007
06/09/2022,10:03:41,0.429,1.0,0.851,0.009
06/09/2022,10:04:32,0.409,1.0,0.857,0.006
06/09/2022,10:05:41,0.427,1.0,0.865,0.008
06/09/2022,10:06:41,0.418,1.0,0.872,0.007
06/09/2022,10:07:32,0.428,1.0,0.878,0.006
06/09/2022,10:08:33,0.427,1.0,0.885,0.007
06/09/2022,10:09:32,0.393,1.0,0.892,0.007
06/09/2022,10:10:34,0.361,1.0,0.898,0.006
06/09/2022,10:11:32,0.347,1.0,0.904,0.006
06/09/2022,10:12:33,0.332,1.0,0.91,0.006
06/09/2022,10:13:32,0.320,1.0,0.915,0.005
06/09/2022,10:14:32,0.318,1.0,0.92,0.005
06/09/2022,10:15:33,0.318,1.0,0.926,0.006
06/09/2022,10:16:33,0.324,1.0,0.931,0.005
06/09/2022,10:17:33,0.338,1.0,0.936,0.005
06/09/2022,10:18:33,0.357,1.0,0.942,0.006
06/09/2022,10:19:32,0.379,1.0,0.948,0.006
06/09/2022,10:20:33,0.395,1.0,0.955,0.007